[[{"header":{"parameterUnit":"m.s-1","parameterCategory":1,"la1":30.2992,"la2":30.254,"lo1":-89.0895,"lo2":-89.0443,"dy":0.0025,"dx":0.0025,"nx":19,"ny":19,"refTime":"2026-04-16T03:00:00:Z","depth":0,"parameterNumber":2,"parameterNumberName":"U-component_of_WINDS"},"data":[0,0,0,-1.0603,-1.0601,-1.0471,-1.0471,-1.0328,-1.0327,0,0,0,0,0,0,0,0,0,0,0,-1.0657,-1.0657,-1.0603,-1.06,-1.0471,-1.0471,-1.0328,-1.0327,0,0,0,0,0,0,0,0,0,0,0,-1.0657,-1.0657,-1.0656,-1.06,-1.0471,-1.047,-1.0329,-1.0418,0,0,0,0,0,0,0,0,0,0,-1.0539,-1.0605,-1.0657,-1.0656,-1.0599,-1.0472,-1.047,-1.0422,-1.0412,-1.0397,0,-1.039,0,-1.0357,-1.0319,-1.0319,0,0,0,-1.0588,-1.0613,-1.0564,-1.0656,-1.0598,-1.0472,-1.0526,-1.0416,-1.0405,-1.0385,-1.0387,-1.0381,-1.0354,-1.0319,-1.0318,-1.0278,-1.0278,0,0,-1.0595,-1.0642,-1.0571,-1.0558,-1.0581,-1.053,-1.0522,-1.0409,-1.0414,-1.0387,-1.0378,-1.0352,-1.0318,-1.0317,-1.0277,-1.0278,0,0,0,-1.0624,-1.0647,-1.06,-1.0564,-1.0539,-1.0527,-1.0518,-1.0419,-1.04,-1.0376,-1.035,-1.0317,-1.0316,-1.0277,-1.0277,-1.0342,0,0,0,-1.0628,-1.0664,-1.0604,-1.0631,-1.0542,-1.0478,-1.0531,-1.0408,-1.0394,-1.0351,-1.0317,-1.0315,-1.0276,-1.0277,-1.0339,-1.0365,0,0,0,-1.066,-1.0667,-1.0654,-1.0634,-1.058,-1.0479,-1.0453,-1.0404,-1.0379,-1.0319,-1.0314,-1.0276,-1.0277,-1.0337,-1.036,-1.0368,0,0,0,-1.0707,-1.0712,-1.0656,-1.0652,-1.0582,-1.0521,-1.0453,-1.0404,-1.0361,-1.0316,-1.0276,-1.0277,-1.0336,-1.0358,-1.0366,-1.0383,-1.0394,0,0,-1.0739,-1.0718,-1.0711,-1.0657,-1.0618,-1.0536,-1.0506,-1.0421,-1.0372,-1.0312,-1.031,-1.034,-1.036,-1.0367,-1.0443,-1.0453,0,0,0,-1.0737,-1.0733,-1.0713,-1.0675,-1.0612,-1.0559,-1.0475,-1.0443,-1.039,-1.0351,-1.0343,-1.0354,-1.0356,-1.0362,-1.037,-1.0369,-1.0282,-1.0282,-1.0282,-1.0848,-1.0787,-1.0773,-1.0697,-1.066,-1.0574,-1.0538,-1.0481,-1.0428,-1.0428,-1.0409,-1.0463,-1.0472,-1.0478,-1.0478,-1.0413,-1.0414,-1.0414,-1.0414,-1.089,-1.0875,-1.0807,-1.0768,-1.0704,-1.067,-1.0587,-1.0551,-1.051,-1.0472,-1.047,-1.0434,-1.049,-1.0487,-1.0418,-1.0417,-1.0417,-1.0417,-1.0416,-1.0956,-1.0938,-1.0901,-1.084,-1.0799,-1.0721,-1.0685,-1.0627,-1.0571,-1.057,-1.0544,-1.0543,-1.0534,-1.0562,-1.0562,-1.0563,-1.0563,-1.0563,-1.0563,-1.1039,-1.0995,-1.0973,-1.0907,-1.0875,-1.0826,-1.074,-1.0706,-1.0654,-1.0614,-1.0613,-1.0561,-1.0507,-1.0495,-1.0566,-1.0565,-1.0565,-1.0565,-1.0564,-1.1104,-1.108,-1.1046,-1.1014,-1.0932,-1.0896,-1.0822,-1.0759,-1.0723,-1.0707,-1.0655,-1.0625,-1.0598,-1.0591,-1.0581,-1.0669,-1.0669,-1.0669,-1.0669,-1.116,-1.1141,-1.1093,-1.1046,-1.0993,-1.0924,-1.0886,-1.082,-1.0746,-1.072,-1.0699,-1.068,-1.0675,-1.0651,-1.0643,-1.0632,-1.0731,-1.0731,-1.0731,-1.1196,-1.117,-1.115,-1.1079,-1.1011,-1.0954,-1.0917,-1.0865,-1.0776,-1.0732,-1.0698,-1.0695,-1.0664,-1.0657,-1.0612,-1.06,-1.0579,0,0]},{"header":{"parameterUnit":"m.s-1","parameterCategory":1,"la1":30.2992,"la2":30.254,"lo1":-89.0895,"lo2":-89.0443,"dy":0.0025,"dx":0.0025,"nx":19,"ny":19,"refTime":"2026-04-16T03:00:00:Z","depth":0,"parameterNumber":3,"parameterNumberName":"V-component_of_WINDS"},"data":[0,0,0,4.0672,4.0672,4.0718,4.0718,4.0762,4.0762,0,0,0,0,0,0,0,0,0,0,0,4.0648,4.0648,4.0672,4.0672,4.0718,4.0718,4.0762,4.0762,0,0,0,0,0,0,0,0,0,0,0,4.0648,4.0648,4.0648,4.0673,4.0718,4.0718,4.0762,4.0732,0,0,0,0,0,0,0,0,0,0,4.0691,4.066,4.0648,4.0648,4.0673,4.0718,4.0718,4.0731,4.0734,4.0734,0,4.0732,0,4.0748,4.0764,4.0764,0,0,0,4.0679,4.0657,4.0678,4.0648,4.0673,4.0718,4.0699,4.0733,4.0736,4.0738,4.0733,4.0735,4.0748,4.0764,4.0764,4.0743,4.0742,0,0,4.0677,4.0651,4.0676,4.068,4.0672,4.0698,4.0701,4.0735,4.0727,4.0733,4.0736,4.0749,4.0764,4.0764,4.0743,4.0743,0,0,0,4.0665,4.0649,4.067,4.0678,4.0687,4.0699,4.0702,4.0726,4.0735,4.0737,4.0749,4.0764,4.0765,4.0744,4.0743,4.0697,0,0,0,4.0664,4.0642,4.0668,4.0653,4.0686,4.0707,4.0692,4.0732,4.0737,4.0749,4.0764,4.0765,4.0744,4.0743,4.07,4.0679,0,0,0,4.0649,4.0641,4.0644,4.0652,4.0671,4.0707,4.0718,4.0734,4.0745,4.0764,4.0765,4.0745,4.0744,4.0702,4.0683,4.0666,0,0,0,4.0625,4.0602,4.0643,4.0622,4.067,4.0679,4.0718,4.0726,4.0737,4.0765,4.0744,4.0743,4.0702,4.0685,4.0668,4.0647,4.0637,0,0,4.0581,4.0595,4.0586,4.0624,4.0619,4.0674,4.0663,4.0696,4.0721,4.0734,4.0734,4.0699,4.0683,4.0667,4.0586,4.0577,0,0,0,4.0563,4.0555,4.056,4.057,4.0596,4.0617,4.0656,4.0669,4.0682,4.0723,4.069,4.0681,4.0673,4.0664,4.0656,4.0651,4.0738,4.0738,4.0738,4.0462,4.0497,4.0484,4.0524,4.0533,4.0575,4.0586,4.0611,4.0642,4.0634,4.0637,4.0584,4.0573,4.0567,4.0561,4.063,4.063,4.063,4.0629,4.0401,4.0396,4.044,4.0443,4.048,4.0482,4.0523,4.0545,4.0553,4.0584,4.0578,4.0607,4.0556,4.0553,4.0626,4.0627,4.0627,4.0628,4.0628,4.0338,4.0342,4.0359,4.0379,4.0391,4.0434,4.044,4.0474,4.0505,4.05,4.0508,4.0508,4.0513,4.0502,4.0501,4.0501,4.0501,4.0501,4.0501,4.0265,4.0287,4.0288,4.0316,4.0329,4.0349,4.0393,4.0406,4.0429,4.0453,4.0453,4.0485,4.0545,4.0559,4.0498,4.0498,4.0499,4.0499,4.0499,4.0188,4.0212,4.0213,4.0226,4.0263,4.0273,4.0317,4.0341,4.0357,4.0359,4.0394,4.0433,4.045,4.0456,4.0467,4.0386,4.0386,4.0386,4.0386,4.0134,4.0147,4.0158,4.0175,4.0197,4.0238,4.024,4.0275,4.0314,4.0327,4.0344,4.0363,4.0368,4.0381,4.0389,4.0401,4.0304,4.0304,4.0304,4.0089,4.0106,4.01,4.014,4.0173,4.02,4.0203,4.0222,4.0272,4.0302,4.0337,4.0341,4.0372,4.038,4.0408,4.0419,4.0441,0,0]}]]